Regional Weather Roundup
Issued by NWS San Diego, CA

Home | Current Version | Previous Version | Text Only | Print | Product List | Glossary On
Versions: 1 2 3 4 5 6 7 8 9 10 11 12 13 14 15 16 17 18 19 20 21 22 23 24 25 26 27 28 29 30 31 32 33 34 35 36 37 38 39 40 41 42 43 44 45 46 47 48 49 50
478
ASUS46 KSGX 230611
RWRSGX

SAN DIEGO HOURLY WEATHER ROUNDUP
NATIONAL WEATHER SERVICE SAN DIEGO CA
1100 PM PDT WED MAR 22 2017

NOTE: "FAIR" INDICATES FEW OR NO CLOUDS BELOW 12,000 FEET WITH NO
SIGNIFICANT WEATHER AND/OR OBSTRUCTIONS TO VISIBILITY.

CAZ042-043-060-061-PZZ750-775-230700-

GREATER SAN DIEGO AREA

CITY           SKY/WX    TMP DP  RH WIND       PRES   REMARKS
SAN DIEGO AP   MOCLDY    60  52  74 W10       30.05S
NATIONAL CITY    N/A     59  55  85 W3        30.04R
CHULA VISTA      N/A     58  55  87 W5        29.96S
IMPERIAL BEACH MOCLDY    60  53  77 W16       30.04S
BROWN FIELD    LGT RAIN  57  54  89 W7        30.03S
MIRAMAR MCAS   MOCLDY    60  51  72 W14G21    30.03S
MONTGOMERY FLD PTCLDY    57  51  80 W9        30.03S

$$

NORTH SAN DIEGO COUNTY

CITY           SKY/WX    TMP DP  RH WIND       PRES   REMARKS
CAMP PENDLETON MOCLDY    55  55 100 CALM      30.01F
OCEANSIDE AP   MOCLDY    60  54  80 W9        30.01S
OCEANSIDE HBR    N/A     59  53  80 N7        30.04F
VISTA            N/A     57  52  85 CALM      30.00S
CARLSBAD       MOCLDY    58  53  84 W8        30.01F
DEL MAR          N/A     58  54  86 NW3       30.05S
LA JOLLA SCRIP   N/A     58  54  85 W9        30.03S
FALLBROOK        N/A     54  54 100 CALM      30.00F
ESCONDIDO        N/A     56  53  88 W7        30.04R
SAN MARCOS       N/A     56  51  84 W6        30.03S
POWAY            N/A     55  52  87 CALM      30.04S

$$

EAST SAN DIEGO COUNTY

CITY           SKY/WX    TMP DP  RH WIND       PRES   REMARKS
RAMONA         LGT RAIN N/A N/A N/A W9        30.02S
SANTEE LAKES     N/A     56  52  86 CALM      30.02S
LA MESA          N/A     55  52  90 W3        29.97R
JAMUL            N/A     51  49  91 CALM      30.03S
DESCANSO N       N/A     43  41  92 W7        29.95R
CAMPO            N/A     47  44  90 W10       29.98S

$$

ORANGE COUNTY AND THE LOS ANGELES BASIN

CITY           SKY/WX    TMP DP  RH WIND       PRES   REMARKS
JOHN WAYNE AP  PTCLDY    59  50  72 VRB3      30.00S
LAGUNA BEACH     N/A    N/A N/A N/A CALM      29.96F
LAKE FOREST FR   N/A     55  49  81 W1        29.90F
HUNTINGTON BCH   N/A     57  51  79 W8        30.01F
LOS ALAMITOS   FAIR      56  49  78 W12       29.99S
FULLERTON      CLEAR     57  50  77 W3        29.99S
LONG BEACH     CLEAR     58  48  69 W14G20    29.99S
L.A. AP        PTCLDY    57  50  77 W12       29.99S
L.A. DOWNTOWN  CLEAR     58  51  78 CALM      29.98R

$$

THE INLAND EMPIRE

CITY           SKY/WX    TMP DP  RH WIND       PRES   REMARKS
CORONA         PTCLDY    56  49  77 SW8       29.99S
CHINO          PTCLDY    55  50  83 SW8       29.99F
ONTARIO        MOCLDY    55  49  80 W9        29.98S
SAN BERNARDINO CLOUDY    57  47  71 SW6       29.99F
RIVERSIDE AP   PTCLDY    54  49  83 W10       29.99S
MORENO VALLEY    N/A     52  50  93 NW1       28.11S
MARCH ARB      PTCLDY    49  46  89 CALM      29.98F
HORSETHIEF CYN   N/A     54  40  61 CALM      29.99F
PERRIS           N/A     51  47  84 E2        30.00F
HEMET EAST       N/A     49  43  78 CALM      30.04S
FRENCH VALLEY  FAIR      52  48  87 S10       30.01S
TEMECULA         N/A     53  51  93 S5        30.05F

$$

SAN BERNARDINO AND RIVERSIDE COUNTY MOUNTAINS

CITY           SKY/WX    TMP DP  RH WIND       PRES   REMARKS
BIG BEAR AP    LGT SNOW  32  28  86 W8        29.94F WCI  25
PINE COVE        N/A     33  34 100 N1        29.94S

$$

SOUTHERN DESERT INCLUDING THE COACHELLA VALLEY

CITY           SKY/WX    TMP DP  RH WIND       PRES   REMARKS
PALM SPRINGS   PTCLDY    64  38  38 E8        29.90S
PALM DESERT      N/A     63  40  42 CALM        N/A
THERMAL        CLEAR     64  42  44 N14G22    29.88S
BLYTHE         PTCLDY    63  42  46 N7        29.84R
IMPERIAL AP    CLEAR     58  42  55 W12       29.90S
EL CENTRO NAS  PTCLDY    60  36  40 W15       29.92F
YUMA AZ        CLOUDY    60  39  45 W16G23    29.88
MEXICALI       CLEAR     63  37  39 W20       29.90R

$$

UPPER DESERT

CITY           SKY/WX    TMP DP  RH WIND       PRES   REMARKS
VICTORVILLE AP MOCLDY    46  36  66 W20G26    29.95R
HESPERIA         N/A     47  36  65 W3        30.06F
PALMDALE       CLEAR     47  39  74 W14       29.99S
LANCASTER      CLEAR     46  39  76 W14       29.99S
EDWARDS AFB    PTCLDY    46  39  76 SW13      29.95R
DAGGETT        PTCLDY    52  35  52 W26       29.89S
29 PALMS N     PTCLDY    54  34  46 W14       29.97F
NEEDLES        CLOUDY    66  34  30 NW10      29.85R

$$

REGIONAL REPORTS

CITY           SKY/WX    TMP DP  RH WIND       PRES   REMARKS
SANTA BARBARA  CLEAR     54  44  69 NW8       30.04R
SANDBERG       CLOUDY    40  37  89 NW20G26   30.00R WCI  30
LAS VEGAS NV   MOCLDY    58  24  27 SW15G29   29.77R
PHOENIX AZ     MOCLDY    63  41  44 NW15      29.85F
TIJUANA        MOCLDY    57  52  82 W7        30.06R
ENSENADA NW      N/A     57  32  39 N2        30.03S

$$

OFFSHORE ISLANDS

CITY           SKY/WX    TMP DP  RH WIND       PRES   REMARKS
CATALINA ARPT  MOCLDY    50  48  93 W22       30.02S
SAN NICOLAS IS PTCLDY   N/A N/A N/A NW23G33   30.07R

$$

MARINE AND OFFSHORE BUOY REPORTS

STATION/POSITION SKY/WX   TEMP    WIND        PRES    VSBY  SWELL
                          AIR SEA DIR/SP/G                  HT/PER/DIR
                          (F)     (DEG/KT/KT) (MB)    (MI)  (FT/S/D)
TANNER BANKS               58 60  310/ 23/ 27 1018.8R         8/310/13
S CLEMENTE BASIN           59 61  280/ 19/ 23 1017.1          3/240/16
SAN NICOLAS IS.               57                N/A           5/280/11
SO. S. ROSA ISLA           56 57  300/ 25/ 31 1018.3R         7/290/12
W. S. BARBARA CH           56 57  320/ 25/ 29 1018.8R         7/270/12
M. S. BARBARA CH                                N/A           5/290/11
S. MONICA BASIN            58 60  290/ 27/ 33 1015.6R         5/250/12
S PEDRO CHANNEL               61                N/A           3/270/13
CMP PENDLETON NS              61                N/A           2/200/18
OCEANSIDE OFFSHR              62                N/A           2/210/18
TORREY PINES OTR              62                N/A           3/210/14
POINT LOMA SOUTH              62                N/A           3/210/15

$$





USA.gov is the U.S. government's official web portal to all federal, state and local government web resources and services.